Regional Weather Roundup
Issued by NWS Wakefield, VA

Home | Current Version | Previous Version | Text Only | Print | Product List | Glossary Off
Versions: 1 2 3 4 5 6 7 8 9 10 11 12 13 14 15 16 17 18 19 20 21 22 23 24 25 26 27 28 29 30 31 32 33 34 35 36 37 38 39 40 41 42 43 44 45 46 47 48 49 50

000
ASUS41 KAKQ 030415
RWRAKQ

REGIONAL WEATHER ROUNDUP
NATIONAL WEATHER SERVICE WAKEFIELD VA
1200 AM EDT SUN MAY 03 2015

Note: "fair" indicates few or no clouds below 12,000 feet with no
significant weather and/or obstructions to visibility. * = Denotes
station may not report precipitation (e.g., rain,snow,etc.),
thunder or fog.

VAZ042-051-052>054-056-030500-
NORTHERN VIRGINIA

CITY           SKY/WX    TMP DP  RH WIND       PRES   REMARKS
WASH NATIONAL  CLEAR     61  46  57 SW5       30.03S
DULLES         PTCLDY    56  42  59 S6        30.03S
FORT BELVOIR   CLEAR     50  47  90 CALM      30.03S
QUANTICO       CLEAR     57  48  72 CALM      30.04S
FREDERICKSBRG* CLEAR     55  49  81 CALM      30.04S
STAFFORD*      CLEAR     49  32  51 CALM      30.08S
WARRENTON      CLEAR     47  46  97 CALM      30.04S
CULPEPER*      NOT AVBL
MANASSAS*      CLEAR     50  48  93 CALM      30.04S
LEESBURG*      CLEAR     61  45  55 SW8       30.03S
WINCHESTER     PTCLDY    59  34  38 SW5       30.04S
FRONT ROYAL*   FAIR      54  43  66 S7        30.05R
LURAY*         MOCLDY    54  48  82 CALM      30.07S
$$

VAZ048-049-060>072-079>083-030500-
CENTRAL AND SOUTH CENTRAL VIRGINIA

CITY           SKY/WX    TMP DP  RH WIND       PRES   REMARKS
RICHMOND       PTCLDY    60  48  64 SW7       30.06S
CHESTERFIELD*  FAIR      52  39  62 CALM      30.09R
PETERSBURG*    CLEAR     49  48  96 SW3       30.08S
HANOVER        CLEAR     51  48  89 CALM      30.08R
TAPPAHANNOCK*  CLEAR     55  46  71 S5        30.06S
QUINTON*       FAIR      51  49  93 S5        30.06S
CHARLOTTSVILLE PTCLDY    55  43  63 CALM      30.07R
GORDONSVILLE*  FAIR      48  46  92 CALM      30.06S
ORANGE*        PTCLDY    50  46  87 S3        30.08S
LOUISA*        PTCLDY    52  46  82 W5        30.06R
BUMPASS*       MOCLDY    51  46  84 CALM      30.06S
FARMVILLE*     PTCLDY    49  49 100 CALM      30.08R
CREWE*         FAIR      51  49  93 CALM      30.08S
FORT PICKETT*  FAIR      52  51  98 CALM      30.08S
CHASE CITY*    FAIR      53  53 100 CALM      30.09S
CLARKSVILLE*   FAIR      50  50 100 CALM      30.09S
SOUTH HILL*    CLEAR     51  49  94 CALM      30.15R
LAWRENCEVILLE* FAIR      53  52  97 S3        30.09R
EMPORIA*       CLEAR     46  46 100 CALM      30.10S FOG
$$

VAZ088>098-030500-
SOUTHEAST VIRGINIA

CITY           SKY/WX    TMP DP  RH WIND       PRES   REMARKS
NORFOLK        CLEAR     52  46  80 S7        30.07S
VIRGINIA BEACH CLEAR     49  46  90 SW6       30.07S
NORFOLK NAVAL  CLEAR     59  48  67 S5        30.09R
WEST POINT*    CLEAR     56  51  83 CALM      30.07F
SALUDA*        FAIR      53  48  84 SE5       30.05S
NEWPORT NEWS   CLEAR     56  48  74 S6        30.07S
LANGLEY AFB    CLEAR     55  50  82 S5        30.06R
FORT EUSTIS    CLEAR     57  51  78 S6        30.05S
WILLIAMSBURG*  CLEAR     55  52  88 SW6       30.07F
HR EXEC AP*    FAIR      48  45  87 CALM      30.09F
FRANKLIN*      CLEAR     55  51  85 S8        30.08F
WAKEFIELD      CLEAR     51  49  92 CALM      30.08R
$$

VAZ020-022-025-037-045-030500-
WEST CENTRAL AND SOUTHWEST VIRGINIA

CITY           SKY/WX    TMP DP  RH WIND       PRES   REMARKS
STAUNTON*      PTCLDY    47  43  86 CALM      30.11S
WAYNESBORO*    MOCLDY    51  41  67 SW6       30.10S
HOT SPRINGS VA CLEAR     54  31  41 N5        30.15S
LYNCHBURG      MOCLDY    49  46  90 CALM      30.11S
DANVILLE       PTCLDY    50  47  89 CALM      30.11R
SOUTH BOSTON*  FAIR      48  47  95 CALM      30.10S
MARTINSVILLE   PTCLDY    47  47 100 CALM      30.15R
ROANOKE        MOCLDY    56  45  66 CALM      30.13R
BLACKSBURG     CLEAR     46  40  81 CALM      30.17S
DUBLIN*        CLEAR     50  38  65 CALM      30.16S
MARION*        CLEAR     46  39  76 CALM      30.19S
HILLSVILLE*    PTCLDY    54  38  56 S3        30.17R
RICHLANDS*     FAIR      57  25  29 CALM      30.17R
WISE*          CLEAR     54  32  43 CALM      30.17S
ABINGDON*      CLEAR     50  39  65 CALM      30.15S
$$

MDZ021>025-VAZ099-100-030500-
SOUTHERN MARYLAND AND THE DELMARVA PENINSULA

CITY           SKY/WX    TMP DP  RH WIND       PRES   REMARKS
PATUXENT RIVER CLEAR     58  47  66 SW10      30.03S
BAY BRIDGE APT   N/A    N/A N/A N/A S5        30.02S
LEONARDTOWN    CLEAR     55  45  67 SW3       30.06S
DOVER          CLEAR     50  48  93 S8        29.99S
GEORGETOWN     CLEAR     48  44  86 S5        30.05S
EASTON         CLEAR     58  51  77 S5        30.07R
CAMBRIDGE      CLEAR     57  54  88 S6        30.04S
SALISBURY      CLEAR     47  44  90 S3        30.05S
OCEAN CITY     CLEAR     51  44  77 S3        30.06S
WALLOPS ISLAND CLEAR     49  46  90 S6        30.06F
ACCOMACK*      CLEAR     48  46  93 S5        30.06S
$$

NCZ012>017-030>032-030500-
NORTH CENTRAL AND EASTERN NORTH CAROLINA

CITY           SKY/WX    TMP DP  RH WIND       PRES   REMARKS
ROANOKE RAPIDS FAIR      50  50 100 CALM      30.09S
RALEIGH        FAIR      52  49  89 CALM      30.11S
ELIZABETH CITY CLEAR     50  47  89 CALM      30.09S
AHOSKIE*       CLEAR     50  49  95 CALM      30.10S
EDENTON*       CLEAR     50  48  93 CALM      30.09F
CURRITUCK*     CLEAR     50  47  88 CALM      30.09S
KILL DEVIL HLS CLEAR     49  47  90 CALM      30.08R
MANTEO         CLEAR     47  45  94 CALM      30.09S
CAPE HATTERAS  CLEAR     43  42  97 CALM      30.09S
TARBORO*       FAIR      50  49  96 CALM      30.11S
GOLDSBORO      CLEAR     54  53  94 CALM      30.09R
WASHINGTON     CLEAR     56  51  86 CALM      30.11S
GREENVILLE     CLEAR     54  52  94 CALM      30.12R
NEW BERN       CLEAR     53  50  89 CALM      30.12S
WILMINGTON     CLEAR     56  54  93 CALM      30.12R
$$

VAZ048-030500-
ELSEWHERE

CITY           SKY/WX    TMP DP  RH WIND       PRES   REMARKS
HARRISBURG PA  MOCLDY    60  48  64 CALM      29.97S
BALTIMORE      MOCLDY    57  45  64 SW5       30.01R
ANNAPOLIS      CLEAR     57  48  72 CALM      30.01S
ANDREWS AFB    CLEAR     55  46  72 S6        30.02S
PHILADELPHIA   PTCLDY    54  43  66 S6        30.04R
HENDERSON NC   FAIR      50  47  92 CALM      30.10S
GREENSBORO     PTCLDY    54  45  71 SW3       30.11R
ROCKY MOUNT    CLEAR     52  51  97 CALM      30.10S
$$

VAZ100-030500-
MARINE

STATION/POSITION TIME  TEMP    WIND        PRES    WAVE   SWELL
                       AIR SEA DIR/SP/G            HT/PER HT/PER
                 (UTC) (F)     (DEG/KT/KT) (MB)    (FT/S) (FT/S)
BRANDYWINE LGT   0300   52 52  180/ 13/ 15 1017.3R
CAPE MAY NJ      0300   51 59  150/  6/  9 1017.1R
LEWES DE         0300   52 54  180/  7/ 10 1017.1R
15NM E FENWICK I 0350   48 48              1017.6R   5/ 8
OCEAN-CITY-INLET 0300   52 54  200/  7/  9 1017.5R
WACHAPREAGUE VA  0300   54 59  200/  8/  9 1017.9R
THOMAS POINT MD  0400   61 57  220/  8/  8 1017.2R
GOOSES REEF MD   0400   60 58                N/A     0
COVE POINT MD    0300   62     240/ 14/ 19 1017.5R
SOLOMONS ISLAND  0306      60                N/A
BISHOPS HEAD MD  0300   58 62  170/ 11/ 14 1016.9R
PINEY POINT MD   0300          240/  6/  9   N/A
CAMBRIDGE MD     0300   58 60  150/  3/  6 1016.8R
LEWISETTA VA     0300   60 62              1017.0S
RAPPAHANNOCK LGT 0300          160/  8/  9 1018.4R
YORK RVR RNG VA  0300          220/  5/  5   N/A
YORKTOWN VA      0300          210/  6/  8   N/A
JAMESTOWN VA     0400   59 63  240/  8/ 10 1016.9F
DOMINION TERM VA 0300   58     200/ 10/ 11 1018.1R
KIPTOPEKE VA     0300      62  160/  5/  6   N/A
CHES BAY BRIDGE  0306   55 56  170/ 11/ 12 1017.7R
CAPE HENRY VA    0300   52     190/  9/ 11 1016.8R
CHESAPEAKE LGHT  0300   51     170/ 10/ 10 1018.9R
WILLOUBY STN VA  0300   58     210/  9/ 11 1018.6R
S CRANEY ISL VA  0300          190/  6/  8   N/A
CAPE HENRY BUOY  0328      51                N/A     5/11   2/11
1ST LANDING BUOY 0400      57              1018.5R
CAPE CHARLES BUO 0326      53                N/A     5/11   5/11
OFFSHORE WE BUOY 0311      50                N/A     6/11   7/11
64NM E OF VA BCH 0350   57 63  350/  4/  6 1017.7S   8/11   8/11
DUCK PIER NC     0300          140/  5/  5   N/A
44056 DUCK FRF   0311      54                N/A     6/11   5/11
OREGON INLET NC  0300   52 57   CALM  /  1 1018.6R
HATTERAS NC      0306   55 62  170/  1/  2 1018.4R
DIAMOND SHLS NC  0350   55 73  350/  8/ 10 1018.9R   6/11   7/11
CAPE LOOKOUT NC  0400   60      10/  2/  2 1019.4S
$$



USA.gov is the U.S. government's official web portal to all federal, state and local government web resources and services.